Native Sun — WDH8179 — position and weather

sailwx.info

Track history (hours):
 
Tides and Currents Weather Stations Pressure Air Temp Water Temp Dewpoint Dewpoint Depression Visibility Wind Speed Wind Dir Waves Ship Positions

Native Sun

Owner: LMB Sportfishing Inc., San Pedro, CA. More information available from US FCC via Universal Licensing System and Coast Guard Vessel Documentation Center.

Last reported at 2018-Jun-25 00:30 UTC. Time now 2018-Jun-25 00:41 UTC.
Position N 33°39' W 118°15'.

Length 23 m.

Type: Passenger vessel. MMSI: 367655460.

Date/timePositionNaut miles runAvg speedWind from/ knotsBaromVisibWave heightAir tempDewpointWater temp
2018-Jun-25 00:30N 33°39' W 118°15'5 9.8
2018-Jun-25 00:00N 33°34' W 118°16'5 9.9
2018-Jun-24 23:30N 33°29' W 118°17'8 1.1
2018-Jun-24 16:23N 33°31' W 118°26'3 9.2
2018-Jun-24 16:00N 33°34' W 118°23'5 9.2
2018-Jun-24 15:30N 33°38' W 118°20'5 9.2
2018-Jun-24 15:00N 33°41' W 118°16'2 3.4
2018-Jun-24 14:30N 33°43' W 118°16'1 1.4
2018-Jun-24 14:00N 33°43' W 118°17'0 0.1
2018-Jun-24 13:30N 33°43' W 118°17'0 0.0
2018-Jun-24 01:13N 33°43' W 118°17'0 2.2
2018-Jun-24 01:00N 33°43' W 118°17'3 5.7
2018-Jun-24 00:30N 33°40' W 118°18'5 9.3
2018-Jun-24 00:00N 33°37' W 118°22'12 1.8
2018-Jun-23 17:12N 33°25' W 118°24'0 0.3
2018-Jun-23 17:00N 33°25' W 118°24'4 7.9
2018-Jun-23 16:26N 33°29' W 118°22'4 8.9
2018-Jun-23 16:00N 33°33' W 118°20'4 8.8
2018-Jun-23 15:30N 33°37' W 118°18'4 8.7
2018-Jun-23 15:00N 33°40' W 118°15'3 5.1
2018-Jun-23 14:30N 33°43' W 118°16'1 1.5
2018-Jun-23 14:00N 33°43' W 118°17'0 0.0
2018-Jun-23 13:30N 33°43' W 118°17'0 0.0
2018-Jun-23 13:00N 33°43' W 118°17'0 0.0
2018-Jun-23 12:30N 33°43' W 118°17'0 0.0
2018-Jun-23 12:00N 33°43' W 118°17'0 0.0
2018-Jun-23 11:30N 33°43' W 118°17'0 0.0
2018-Jun-23 11:00N 33°43' W 118°17'0 0.0
2018-Jun-23 10:30N 33°43' W 118°17'0 0.0
2018-Jun-23 10:00N 33°43' W 118°17'0 0.0
2018-Jun-23 09:30N 33°43' W 118°17'0 0.0
2018-Jun-23 09:00N 33°43' W 118°17'0 0.0
2018-Jun-23 08:30N 33°43' W 118°17'0 0.0
2018-Jun-23 08:00N 33°43' W 118°17'0 0.0
2018-Jun-23 07:30N 33°43' W 118°17'0 0.0
2018-Jun-23 07:00N 33°43' W 118°17'0 0.0
2018-Jun-23 06:30N 33°43' W 118°17'0 0.0
2018-Jun-23 06:00N 33°43' W 118°17'0 0.0
2018-Jun-23 05:31N 33°43' W 118°17'0 0.0
2018-Jun-23 05:00N 33°43' W 118°17'0 0.0
2018-Jun-23 04:30N 33°43' W 118°17'0 0.0
2018-Jun-23 04:01N 33°43' W 118°17'0 0.0
2018-Jun-23 03:30N 33°43' W 118°17'0 0.0
2018-Jun-23 03:01N 33°43' W 118°17'0 0.0
2018-Jun-23 02:30N 33°43' W 118°17'0 0.0
2018-Jun-23 02:01N 33°43' W 118°17'0 0.0
2018-Jun-23 01:31N 33°43' W 118°17'0 0.0
2018-Jun-23 01:00N 33°43' W 118°17'0 0.2
2018-Jun-23 00:31N 33°43' W 118°17'3 5.1
2018-Jun-23 00:01N 33°41' W 118°17'5 9.4
2018-Jun-22 23:30N 33°38' W 118°21'13 1.7
2018-Jun-22 15:54N 33°25' W 118°18'4 9.5
2018-Jun-22 15:30N 33°29' W 118°17'5 9.4
2018-Jun-22 15:00N 33°33' W 118°16'5 9.2
2018-Jun-22 14:30N 33°38' W 118°15'5 9.2
2018-Jun-22 14:00N 33°42' W 118°15'1 2.6
2018-Jun-22 13:30N 33°43' W 118°16'1 1.5
2018-Jun-22 13:00N 33°43' W 118°17'0 0.0
2018-Jun-22 12:30N 33°43' W 118°17'0 0.0
2018-Jun-22 00:34N 33°43' W 118°17'0 0.0
2018-Jun-22 00:30N 33°43' W 118°17'2 3.0
2018-Jun-22 00:00N 33°43' W 118°15'5 9.0
2018-Jun-21 23:30N 33°40' W 118°19'5 9.6
2018-Jun-21 22:59N 33°37' W 118°24'11 1.9
2018-Jun-21 16:56N 33°25' W 118°24'7 9.4
2018-Jun-21 16:12N 33°32' W 118°21'2 9.4
2018-Jun-21 16:00N 33°33' W 118°20'5 9.2
2018-Jun-21 15:30N 33°37' W 118°16'4 7.8
2018-Jun-21 15:00N 33°40' W 118°14'3 6.2
2018-Jun-21 14:30N 33°43' W 118°16'1 1.6
2018-Jun-21 14:00N 33°43' W 118°17'0 0.0
2018-Jun-21 00:25N 33°43' W 118°17'0 0.0
2018-Jun-21 00:00N 33°43' W 118°17'0 0.0
2018-Jun-20 23:30N 33°43' W 118°17'1 2.6
2018-Jun-20 23:00N 33°43' W 118°16'3 5.6
2018-Jun-20 22:30N 33°40' W 118°14'0 0.9
2018-Jun-20 22:00N 33°40' W 118°14'0 0.0
2018-Jun-20 21:30N 33°40' W 118°14'0 0.0
2018-Jun-20 20:59N 33°40' W 118°14'0 0.7
2018-Jun-20 20:30N 33°40' W 118°14'1 1.1
2018-Jun-20 20:00N 33°40' W 118°14'0 0.4
2018-Jun-20 19:30N 33°40' W 118°14'3 6.5
2018-Jun-20 19:00N 33°43' W 118°14'1 2.6
2018-Jun-20 18:30N 33°44' W 118°13'1 2.7
2018-Jun-20 18:00N 33°43' W 118°11'5 9.8
2018-Jun-20 17:30N 33°38' W 118°12'0 0.9
2018-Jun-20 17:00N 33°39' W 118°12'1 1.0
2018-Jun-20 16:30N 33°39' W 118°12'2 3.6
2018-Jun-20 16:00N 33°40' W 118°14'0 0.2
2018-Jun-20 15:30N 33°40' W 118°14'1 2.4
2018-Jun-20 15:00N 33°41' W 118°14'3 5.1
2018-Jun-20 14:29N 33°43' W 118°16'1 1.6
2018-Jun-20 14:00N 33°43' W 118°17'0 0.0
2018-Jun-20 00:33N 33°43' W 118°17'0 0.0
2018-Jun-20 00:30N 33°43' W 118°17'2 4.3
2018-Jun-20 00:00N 33°41' W 118°16'5 9.4
2018-Jun-19 23:29N 33°37' W 118°20'5 9.3
2018-Jun-19 22:57N 33°34' W 118°23'0 0.0
2018-Jun-19 15:48N 33°34' W 118°23'3 9.3
2018-Jun-19 15:30N 33°36' W 118°21'5 9.2
2018-Jun-19 15:01N 33°39' W 118°18'4 7.5
2018-Jun-19 14:30N 33°43' W 118°16'1 2.1
2018-Jun-19 14:00N 33°43' W 118°17'0 0.0
2018-Jun-19 01:01N 33°43' W 118°17'0 0.0
2018-Jun-19 01:00N 33°43' W 118°17'1 1.8
2018-Jun-19 00:30N 33°44' W 118°16'1 2.5
2018-Jun-19 00:00N 33°43' W 118°16'0 0.5
2018-Jun-18 23:30N 33°43' W 118°16'4 7.4
2018-Jun-18 23:00N 33°40' W 118°18'5 9.5
2018-Jun-18 22:30N 33°37' W 118°23'6 0.9
2018-Jun-18 16:16N 33°31' W 118°22'3 9.5
2018-Jun-18 16:00N 33°33' W 118°20'5 9.5
2018-Jun-18 15:30N 33°37' W 118°17'5 9.5
2018-Jun-18 15:00N 33°42' W 118°15'2 3.4
2018-Jun-18 14:31N 33°43' W 118°14'2 3.9
2018-Jun-18 14:00N 33°43' W 118°17'0 0.1
2018-Jun-18 13:30N 33°43' W 118°17'0 0.0
2018-Jun-18 00:13N 33°43' W 118°17'0 0.0
2018-Jun-18 00:00N 33°43' W 118°17'1 1.5
2018-Jun-17 23:30N 33°43' W 118°16'1 1.6
2018-Jun-17 23:00N 33°43' W 118°15'3 6.0
2018-Jun-17 22:30N 33°40' W 118°14'0 0.1
2018-Jun-17 22:00N 33°40' W 118°14'1 1.2
2018-Jun-17 21:30N 33°39' W 118°14'1 2.6
2018-Jun-17 21:00N 33°40' W 118°12'0 0.1
2018-Jun-17 20:30N 33°40' W 118°12'1 2.6
2018-Jun-17 20:00N 33°38' W 118°12'3 5.4
2018-Jun-17 19:30N 33°36' W 118°13'0 0.0
2018-Jun-17 18:59N 33°36' W 118°13'0 0.0
2018-Jun-17 18:28N 33°36' W 118°13'0 0.1
2018-Jun-17 18:00N 33°36' W 118°13'0 0.1
2018-Jun-17 17:30N 33°36' W 118°13'4 7.3
2018-Jun-17 17:00N 33°39' W 118°13'0 0.3
2018-Jun-17 16:30N 33°40' W 118°13'0 0.0
2018-Jun-17 16:00N 33°40' W 118°13'0 0.0
2018-Jun-17 15:30N 33°40' W 118°13'1 2.6
2018-Jun-17 15:00N 33°41' W 118°14'3 5.7
2018-Jun-17 14:30N 33°43' W 118°16'1 1.5
2018-Jun-17 14:00N 33°43' W 118°17'0 0.0
2018-Jun-17 13:30N 33°43' W 118°17'0 0.0
2018-Jun-17 00:42N 33°43' W 118°17'0 0.0
2018-Jun-17 00:31N 33°43' W 118°17'0 0.1
2018-Jun-17 00:01N 33°43' W 118°17'2 3.4
2018-Jun-16 23:31N 33°43' W 118°15'3 6.8
2018-Jun-16 23:00N 33°39' W 118°14'0 0.0
2018-Jun-16 22:30N 33°39' W 118°14'0 0.0
2018-Jun-16 22:00N 33°39' W 118°14'0 0.0
2018-Jun-16 21:30N 33°39' W 118°14'2 4.4
2018-Jun-16 21:00N 33°38' W 118°12'2 4.1
2018-Jun-16 20:30N 33°36' W 118°11'0 0.1
2018-Jun-16 20:01N 33°36' W 118°11'0 0.1
2018-Jun-16 19:30N 33°36' W 118°11'0 0.4
2018-Jun-16 19:00N 33°36' W 118°11'2 3.7
2018-Jun-16 18:30N 33°38' W 118°12'2 4.4
2018-Jun-16 17:59N 33°40' W 118°13'0 0.4
2018-Jun-16 17:31N 33°40' W 118°14'0 0.0
2018-Jun-16 16:59N 33°40' W 118°14'0 0.0
2018-Jun-16 16:31N 33°40' W 118°14'0 0.0
2018-Jun-16 16:00N 33°40' W 118°14'0 0.0
2018-Jun-16 15:30N 33°40' W 118°14'1 1.4
2018-Jun-16 15:01N 33°40' W 118°14'3 6.8
2018-Jun-16 14:31N 33°43' W 118°16'0 0.1
2018-Jun-16 14:00N 33°43' W 118°16'1 1.5
2018-Jun-16 13:31N 33°43' W 118°17'0 0.0
2018-Jun-16 00:26N 33°43' W 118°17'0 0.0
2018-Jun-16 00:01N 33°43' W 118°17'0 0.1
2018-Jun-15 23:30N 33°43' W 118°17'2 4.3
2018-Jun-15 23:00N 33°42' W 118°15'3 5.9
2018-Jun-15 22:30N 33°39' W 118°14'0 0.0
2018-Jun-15 22:00N 33°39' W 118°14'0 0.0
2018-Jun-15 21:31N 33°39' W 118°14'0 0.4
2018-Jun-15 21:00N 33°40' W 118°13'1 2.2
2018-Jun-15 20:30N 33°40' W 118°12'0 0.3
2018-Jun-15 20:00N 33°40' W 118°12'4 7.2
2018-Jun-15 19:30N 33°36' W 118°13'1 2.5
2018-Jun-15 19:00N 33°35' W 118°13'0 0.0
2018-Jun-15 18:30N 33°35' W 118°13'0 0.1
2018-Jun-15 17:59N 33°35' W 118°13'0 0.1
2018-Jun-15 17:30N 33°35' W 118°13'0 0.7
2018-Jun-15 17:00N 33°35' W 118°13'0 0.0
2018-Jun-15 16:30N 33°35' W 118°13'0 0.1
2018-Jun-15 16:01N 33°35' W 118°13'4 7.2
2018-Jun-15 15:31N 33°39' W 118°14'5 0.4
2018-Jun-15 01:23N 33°43' W 118°17'2 4.5
2018-Jun-15 01:00N 33°43' W 118°15'  
Track history (hours):
 
Tides and Currents Weather Stations Pressure Air Temp Water Temp Dewpoint Dewpoint Depression Visibility Wind Speed Wind Dir Waves Ship Positions

Native Sun

Owner: LMB Sportfishing Inc., San Pedro, CA. More information available from US FCC via Universal Licensing System and Coast Guard Vessel Documentation Center.

Last reported at 2018-Jun-25 00:30 UTC. Time now 2018-Jun-25 00:41 UTC.
Position N 33°39' W 118°15'.

Length 23 m.

Type: Passenger vessel. MMSI: 367655460.

Date/timePositionNaut miles runAvg speedWind from/ knotsBaromVisibWave heightAir tempDewpointWater temp
2018-Jun-25 00:30N 33°39' W 118°15'5 9.8
2018-Jun-25 00:00N 33°34' W 118°16'5 9.9
2018-Jun-24 23:30N 33°29' W 118°17'8 1.1
2018-Jun-24 16:23N 33°31' W 118°26'3 9.2
2018-Jun-24 16:00N 33°34' W 118°23'5 9.2
2018-Jun-24 15:30N 33°38' W 118°20'5 9.2
2018-Jun-24 15:00N 33°41' W 118°16'2 3.4
2018-Jun-24 14:30N 33°43' W 118°16'1 1.4
2018-Jun-24 14:00N 33°43' W 118°17'0 0.1
2018-Jun-24 13:30N 33°43' W 118°17'0 0.0
2018-Jun-24 01:13N 33°43' W 118°17'0 2.2
2018-Jun-24 01:00N 33°43' W 118°17'3 5.7
2018-Jun-24 00:30N 33°40' W 118°18'5 9.3
2018-Jun-24 00:00N 33°37' W 118°22'12 1.8
2018-Jun-23 17:12N 33°25' W 118°24'0 0.3
2018-Jun-23 17:00N 33°25' W 118°24'4 7.9
2018-Jun-23 16:26N 33°29' W 118°22'4 8.9
2018-Jun-23 16:00N 33°33' W 118°20'4 8.8
2018-Jun-23 15:30N 33°37' W 118°18'4 8.7
2018-Jun-23 15:00N 33°40' W 118°15'3 5.1
2018-Jun-23 14:30N 33°43' W 118°16'1 1.5
2018-Jun-23 14:00N 33°43' W 118°17'0 0.0
2018-Jun-23 13:30N 33°43' W 118°17'0 0.0
2018-Jun-23 13:00N 33°43' W 118°17'0 0.0
2018-Jun-23 12:30N 33°43' W 118°17'0 0.0
2018-Jun-23 12:00N 33°43' W 118°17'0 0.0
2018-Jun-23 11:30N 33°43' W 118°17'0 0.0
2018-Jun-23 11:00N 33°43' W 118°17'0 0.0
2018-Jun-23 10:30N 33°43' W 118°17'0 0.0
2018-Jun-23 10:00N 33°43' W 118°17'0 0.0
2018-Jun-23 09:30N 33°43' W 118°17'0 0.0
2018-Jun-23 09:00N 33°43' W 118°17'0 0.0
2018-Jun-23 08:30N 33°43' W 118°17'0 0.0
2018-Jun-23 08:00N 33°43' W 118°17'0 0.0
2018-Jun-23 07:30N 33°43' W 118°17'0 0.0
2018-Jun-23 07:00N 33°43' W 118°17'0 0.0
2018-Jun-23 06:30N 33°43' W 118°17'0 0.0
2018-Jun-23 06:00N 33°43' W 118°17'0 0.0
2018-Jun-23 05:31N 33°43' W 118°17'0 0.0
2018-Jun-23 05:00N 33°43' W 118°17'0 0.0
2018-Jun-23 04:30N 33°43' W 118°17'0 0.0
2018-Jun-23 04:01N 33°43' W 118°17'0 0.0
2018-Jun-23 03:30N 33°43' W 118°17'0 0.0
2018-Jun-23 03:01N 33°43' W 118°17'0 0.0
2018-Jun-23 02:30N 33°43' W 118°17'0 0.0
2018-Jun-23 02:01N 33°43' W 118°17'0 0.0
2018-Jun-23 01:31N 33°43' W 118°17'0 0.0
2018-Jun-23 01:00N 33°43' W 118°17'0 0.2
2018-Jun-23 00:31N 33°43' W 118°17'3 5.1
2018-Jun-23 00:01N 33°41' W 118°17'5 9.4
2018-Jun-22 23:30N 33°38' W 118°21'13 1.7
2018-Jun-22 15:54N 33°25' W 118°18'4 9.5
2018-Jun-22 15:30N 33°29' W 118°17'5 9.4
2018-Jun-22 15:00N 33°33' W 118°16'5 9.2
2018-Jun-22 14:30N 33°38' W 118°15'5 9.2
2018-Jun-22 14:00N 33°42' W 118°15'1 2.6
2018-Jun-22 13:30N 33°43' W 118°16'1 1.5
2018-Jun-22 13:00N 33°43' W 118°17'0 0.0
2018-Jun-22 12:30N 33°43' W 118°17'0 0.0
2018-Jun-22 00:34N 33°43' W 118°17'0 0.0
2018-Jun-22 00:30N 33°43' W 118°17'2 3.0
2018-Jun-22 00:00N 33°43' W 118°15'5 9.0
2018-Jun-21 23:30N 33°40' W 118°19'5 9.6
2018-Jun-21 22:59N 33°37' W 118°24'11 1.9
2018-Jun-21 16:56N 33°25' W 118°24'7 9.4
2018-Jun-21 16:12N 33°32' W 118°21'2 9.4
2018-Jun-21 16:00N 33°33' W 118°20'5 9.2
2018-Jun-21 15:30N 33°37' W 118°16'4 7.8
2018-Jun-21 15:00N 33°40' W 118°14'3 6.2
2018-Jun-21 14:30N 33°43' W 118°16'1 1.6
2018-Jun-21 14:00N 33°43' W 118°17'0 0.0
2018-Jun-21 00:25N 33°43' W 118°17'0 0.0
2018-Jun-21 00:00N 33°43' W 118°17'0 0.0
2018-Jun-20 23:30N 33°43' W 118°17'1 2.6
2018-Jun-20 23:00N 33°43' W 118°16'3 5.6
2018-Jun-20 22:30N 33°40' W 118°14'0 0.9
2018-Jun-20 22:00N 33°40' W 118°14'0 0.0
2018-Jun-20 21:30N 33°40' W 118°14'0 0.0
2018-Jun-20 20:59N 33°40' W 118°14'0 0.7
2018-Jun-20 20:30N 33°40' W 118°14'1 1.1
2018-Jun-20 20:00N 33°40' W 118°14'0 0.4
2018-Jun-20 19:30N 33°40' W 118°14'3 6.5
2018-Jun-20 19:00N 33°43' W 118°14'1 2.6
2018-Jun-20 18:30N 33°44' W 118°13'1 2.7
2018-Jun-20 18:00N 33°43' W 118°11'5 9.8
2018-Jun-20 17:30N 33°38' W 118°12'0 0.9
2018-Jun-20 17:00N 33°39' W 118°12'1 1.0
2018-Jun-20 16:30N 33°39' W 118°12'2 3.6
2018-Jun-20 16:00N 33°40' W 118°14'0 0.2
2018-Jun-20 15:30N 33°40' W 118°14'1 2.4
2018-Jun-20 15:00N 33°41' W 118°14'3 5.1
2018-Jun-20 14:29N 33°43' W 118°16'1 1.6
2018-Jun-20 14:00N 33°43' W 118°17'0 0.0
2018-Jun-20 00:33N 33°43' W 118°17'0 0.0
2018-Jun-20 00:30N 33°43' W 118°17'2 4.3
2018-Jun-20 00:00N 33°41' W 118°16'5 9.4
2018-Jun-19 23:29N 33°37' W 118°20'5 9.3
2018-Jun-19 22:57N 33°34' W 118°23'0 0.0
2018-Jun-19 15:48N 33°34' W 118°23'3 9.3
2018-Jun-19 15:30N 33°36' W 118°21'5 9.2
2018-Jun-19 15:01N 33°39' W 118°18'4 7.5
2018-Jun-19 14:30N 33°43' W 118°16'1 2.1
2018-Jun-19 14:00N 33°43' W 118°17'0 0.0
2018-Jun-19 01:01N 33°43' W 118°17'0 0.0
2018-Jun-19 01:00N 33°43' W 118°17'1 1.8
2018-Jun-19 00:30N 33°44' W 118°16'1 2.5
2018-Jun-19 00:00N 33°43' W 118°16'0 0.5
2018-Jun-18 23:30N 33°43' W 118°16'4 7.4
2018-Jun-18 23:00N 33°40' W 118°18'5 9.5
2018-Jun-18 22:30N 33°37' W 118°23'6 0.9
2018-Jun-18 16:16N 33°31' W 118°22'3 9.5
2018-Jun-18 16:00N 33°33' W 118°20'5 9.5
2018-Jun-18 15:30N 33°37' W 118°17'5 9.5
2018-Jun-18 15:00N 33°42' W 118°15'2 3.4
2018-Jun-18 14:31N 33°43' W 118°14'2 3.9
2018-Jun-18 14:00N 33°43' W 118°17'0 0.1
2018-Jun-18 13:30N 33°43' W 118°17'0 0.0
2018-Jun-18 00:13N 33°43' W 118°17'0 0.0
2018-Jun-18 00:00N 33°43' W 118°17'1 1.5
2018-Jun-17 23:30N 33°43' W 118°16'1 1.6
2018-Jun-17 23:00N 33°43' W 118°15'3 6.0
2018-Jun-17 22:30N 33°40' W 118°14'0 0.1
2018-Jun-17 22:00N 33°40' W 118°14'1 1.2
2018-Jun-17 21:30N 33°39' W 118°14'1 2.6
2018-Jun-17 21:00N 33°40' W 118°12'0 0.1
2018-Jun-17 20:30N 33°40' W 118°12'1 2.6
2018-Jun-17 20:00N 33°38' W 118°12'3 5.4
2018-Jun-17 19:30N 33°36' W 118°13'0 0.0
2018-Jun-17 18:59N 33°36' W 118°13'0 0.0
2018-Jun-17 18:28N 33°36' W 118°13'0 0.1
2018-Jun-17 18:00N 33°36' W 118°13'0 0.1
2018-Jun-17 17:30N 33°36' W 118°13'4 7.3
2018-Jun-17 17:00N 33°39' W 118°13'0 0.3
2018-Jun-17 16:30N 33°40' W 118°13'0 0.0
2018-Jun-17 16:00N 33°40' W 118°13'0 0.0
2018-Jun-17 15:30N 33°40' W 118°13'1 2.6
2018-Jun-17 15:00N 33°41' W 118°14'3 5.7
2018-Jun-17 14:30N 33°43' W 118°16'1 1.5
2018-Jun-17 14:00N 33°43' W 118°17'0 0.0
2018-Jun-17 13:30N 33°43' W 118°17'0 0.0
2018-Jun-17 00:42N 33°43' W 118°17'0 0.0
2018-Jun-17 00:31N 33°43' W 118°17'0 0.1
2018-Jun-17 00:01N 33°43' W 118°17'2 3.4
2018-Jun-16 23:31N 33°43' W 118°15'3 6.8
2018-Jun-16 23:00N 33°39' W 118°14'0 0.0
2018-Jun-16 22:30N 33°39' W 118°14'0 0.0
2018-Jun-16 22:00N 33°39' W 118°14'0 0.0
2018-Jun-16 21:30N 33°39' W 118°14'2 4.4
2018-Jun-16 21:00N 33°38' W 118°12'2 4.1
2018-Jun-16 20:30N 33°36' W 118°11'0 0.1
2018-Jun-16 20:01N 33°36' W 118°11'0 0.1
2018-Jun-16 19:30N 33°36' W 118°11'0 0.4
2018-Jun-16 19:00N 33°36' W 118°11'2 3.7
2018-Jun-16 18:30N 33°38' W 118°12'2 4.4
2018-Jun-16 17:59N 33°40' W 118°13'0 0.4
2018-Jun-16 17:31N 33°40' W 118°14'0 0.0
2018-Jun-16 16:59N 33°40' W 118°14'0 0.0
2018-Jun-16 16:31N 33°40' W 118°14'0 0.0
2018-Jun-16 16:00N 33°40' W 118°14'0 0.0
2018-Jun-16 15:30N 33°40' W 118°14'1 1.4
2018-Jun-16 15:01N 33°40' W 118°14'3 6.8
2018-Jun-16 14:31N 33°43' W 118°16'0 0.1
2018-Jun-16 14:00N 33°43' W 118°16'1 1.5
2018-Jun-16 13:31N 33°43' W 118°17'0 0.0
2018-Jun-16 00:26N 33°43' W 118°17'0 0.0
2018-Jun-16 00:01N 33°43' W 118°17'0 0.1
2018-Jun-15 23:30N 33°43' W 118°17'2 4.3
2018-Jun-15 23:00N 33°42' W 118°15'3 5.9
2018-Jun-15 22:30N 33°39' W 118°14'0 0.0
2018-Jun-15 22:00N 33°39' W 118°14'0 0.0
2018-Jun-15 21:31N 33°39' W 118°14'0 0.4
2018-Jun-15 21:00N 33°40' W 118°13'1 2.2
2018-Jun-15 20:30N 33°40' W 118°12'0 0.3
2018-Jun-15 20:00N 33°40' W 118°12'4 7.2
2018-Jun-15 19:30N 33°36' W 118°13'1 2.5
2018-Jun-15 19:00N 33°35' W 118°13'0 0.0
2018-Jun-15 18:30N 33°35' W 118°13'0 0.1
2018-Jun-15 17:59N 33°35' W 118°13'0 0.1
2018-Jun-15 17:30N 33°35' W 118°13'0 0.7
2018-Jun-15 17:00N 33°35' W 118°13'0 0.0
2018-Jun-15 16:30N 33°35' W 118°13'0 0.1
2018-Jun-15 16:01N 33°35' W 118°13'4 7.2
2018-Jun-15 15:31N 33°39' W 118°14'5 0.4
2018-Jun-15 01:23N 33°43' W 118°17'2 4.5
2018-Jun-15 01:00N 33°43' W 118°15'  

Dump ship's entire track history